Temperature
17 17 18 18 17 17 17 18 18 18 18 18 18 18 18 18 18 18 18 17 18 17 18 18 18 18 18 18 18 18 18 18 18 18 18 18 18 18 18 18 18 17 18
17 17 18 18 17 17 17 17 17 17 17 17 17 17 18 18 18 17 17 17 17 17 17 17 17 18 18 18 18 18 18 18 18 18 18 18 18 18 18 18 18 17 18
17 17 17 18 17 17 17 17 17 17 17 17 17 17 18 17 17 17 17 17 17 17 17 17 17 17 17 17 17 17 17 18 18 18 17 17 17 17 17 18 18 18 18
17 17 17 18 17 17 17 17 17 17 18 17 17 17 17 17 17 17 17 17 17 17 17 17 17 17 17 17 17 17 17 17 17 17 17 17 17 17 17 17 17 17 17
17 17 17 18 17 17 17 17 17 17 18 17 17 17 17 17 17 17 17 17 17 17 17 17 17 17 17 17 17 17 17 17 17 17 16 17 17 17 17 17 17 17 17
17 17 17 17 17 17 17 17 17 17 17 17 17 17 17 17 17 17 17 17 17 17 17 17 17 17 17 17 17 17 17 17 17 16 16 16 17 17 17 17 17 17 17
17 17 17 17 17 17 17 17 17 17 17 17 17 17 17 17 17 17 17 17 17 17 17 17 17 17 17 17 17 17 17 17 16 16 16 16 16 17 17 17 17 17 17
17 17 17 17 17 17 17 17 17 17 17 17 17 17 17 17 17 17 17 17 17 17 17 17 17 17 17 17 17 17 17 16 16 16 16 16 16 17 17 17 17 17 17
17 17 17 17 17 17 17 17 17 17 17 17 17 17 17 17 16 16 16 16 16 16 16 17 17 17 17 17 17 17 17 16 16 16 16 16 16 16 16 17 17 16 16
17 17 17 17 17 17 17 17 17 17 17 17 17 17 17 16 16 16 16 16 16 16 16 16 16 16 16 16 16 16 16 16 16 16 16 16 16 16 16 16 16 16 16
17 17 17 17 17 17 17 17 17 17 17 17 16 16 16 16 16 16 16 16 16 16 16 16 16 16 16 16 16 16 16 16 16 16 15 16 16 16 16 16 16 16 16
17 17 17 17 17 17 16 16 16 16 16 16 16 16 16 16 16 16 16 16 16 16 16 16 16 16 16 16 16 16 16 16 16 15 15 16 16 16 16 16 16 16 16
17 17 17 17 17 17 17 16 16 16 16 16 16 16 16 16 16 16 16 16 16 16 15 15 15 15 15 15 15 15 15 16 15 15 15 15 15 15 15 15 15 15 15
17 17 17 17 17 17 17 16 16 16 16 16 16 16 16 16 15 15 16 15 15 15 15 15 15 15 15 15 15 15 15 15 15 15 15 15 15 15 15 15 15 15 15
17 17 17 17 17 16 16 16 16 16 16 16 16 16 15 15 15 15 15 15 15 15 15 15 15 15 15 15 15 15 15 15 15 15 15 15 15 15 15 15 15 15 15
17 17 17 16 16 16 16 16 16 16 16 16 16 15 15 15 15 15 15 15 15 15 15 15 15 15 15 15 15 15 15 15 15 15 14 15 15 15 15 15 15 15 15
17 17 17 16 16 16 16 16 16 16 16 15 15 15 15 15 15 15 15 15 15 15 15 15 15 14 14 14 14 14 14 14 14 14 14 14 14 15 15 15 14 14 14
17 17 17 16 16 16 16 16 16 15 15 15 15 15 15 15 15 15 15 15 14 14 14 14 14 14 14 14 14 14 14 14 14 14 14 14 14 14 14 14 14 14 14
17 17 17 16 16 16 16 15 15 15 15 15 15 15 15 15 15 15 15 14 14 14 14 14 14 14 14 14 14 14 14 14 14 14 14 14 14 14 14 14 14 14 14
17 17 17 16 16 16 16 15 15 15 15 15 15 15 15 15 15 15 14 14 14 14 14 14 14 14 14 14 14 14 13 13 14 13 13 13 13 13 13 13 13 13 14
17 16 16 16 16 16 16 15 15 15 15 15 15 15 15 15 15 14 14 14 14 14 14 14 13 13 13 13 14 13 13 13 13 13 13 13 13 13 13 13 13 13 13
17 16 16 16 16 16 16 15 15 15 15 15 15 15 15 14 14 14 14 14 14 14 14 13 13 13 13 13 13 14 14 14 13 13 13 13 13 13 13 13 13 13 13
17 16 16 16 16 16 15 15 15 15 15 15 15 15 14 14 14 14 14 14 14 14 14 13 13 13 13 13 13 13 14 14 13 13 12 13 13 13 13 13 12 12 12
17 16 16 16 15 15 15 15 15 15 15 14 14 14 14 14 14 14 14 14 14 14 14 13 13 13 13 13 13 13 13 13 13 13 12 12 12 12 12 12 12 12 12
17 16 16 16 15 15 15 15 15 14 14 14 14 14 14 14 14 13 13 13 13 13 13 13 13 13 13 13 13 13 13 13 13 13 13 12 12 12 12 12 12 12 12
16 16 16 15 15 15 15 15 15 14 14 14 14 14 14 13 13 13 13 13 13 13 13 13 13 13 13 13 13 13 13 13 13 13 13 12 12 12 11 12 12 12 12
Wind_Speed
3 5 7 5 6 7 7 7 7 7 8 8 8 8 8 8 8 8 8 9 9 9 9 9 9 9 9 8 8 7 7 7 7 7 7 7 7 7 6 5 4 6 8
5 6 7 5 6 7 7 7 8 8 8 8 8 8 8 8 8 8 8 8 8 9 9 9 9 9 9 8 8 8 7 7 7 7 6 7 7 7 6 6 4 6 7
6 6 7 6 6 7 7 8 8 8 8 8 8 8 8 7 8 8 8 8 8 8 8 8 8 8 9 8 8 8 8 7 7 5 3 5 8 7 6 6 5 6 6
6 6 7 7 6 7 7 7 8 8 8 7 7 8 8 8 8 8 8 8 8 8 7 8 8 8 8 8 8 8 8 7 6 1 3 5 6 8 6 6 6 5 6
6 6 8 6 6 7 7 7 8 8 8 8 8 8 8 8 8 8 8 8 8 8 8 8 8 8 8 8 8 8 7 6 3 1 5 5 6 7 6 6 5 5 6
6 6 8 6 6 6 7 7 7 8 8 8 8 8 8 8 8 8 8 8 8 8 8 8 8 8 9 8 8 7 7 4 1 5 5 5 6 7 6 6 5 5 6
6 6 7 7 6 6 7 7 7 8 8 9 9 8 8 8 8 8 8 8 8 8 8 8 8 8 8 8 8 7 6 2 3 4 4 5 7 7 5 5 5 5 5
6 6 7 7 7 7 7 7 8 8 8 8 8 8 8 7 8 8 8 8 8 8 8 8 8 8 8 7 7 7 5 3 4 4 4 5 7 6 5 5 5 5 5
6 6 5 6 7 7 7 7 8 8 8 8 8 8 8 8 8 8 8 8 8 8 8 8 8 8 8 8 7 6 5 4 3 4 4 5 6 5 5 5 5 5 5
5 5 5 5 5 5 7 7 7 8 8 8 8 8 7 7 7 7 8 8 8 8 8 8 8 8 9 8 7 6 3 1 4 4 4 7 7 5 5 5 5 6 6
4 4 4 4 5 5 5 7 7 7 6 6 7 6 4 5 6 6 9 8 8 9 9 9 9 8 7 8 7 3 0 2 4 4 5 9 7 6 5 6 6 6 7
4 4 4 4 4 4 4 5 4 5 4 5 5 5 5 6 6 6 9 8 8 8 8 8 7 5 2 4 5 1 2 3 4 4 7 8 7 6 6 6 7 7 7
4 4 4 4 4 4 3 4 3 3 3 4 5 5 4 4 4 5 4 5 5 5 5 6 4 5 4 4 3 3 4 4 4 4 8 8 7 6 7 7 7 7 7
5 4 4 4 4 4 4 4 3 3 3 3 4 4 3 3 3 4 3 4 4 4 4 4 4 5 4 4 4 4 4 4 4 4 8 10 8 8 8 7 7 7 7
5 4 4 3 3 3 3 3 3 3 3 3 3 3 4 3 3 3 4 4 4 4 3 3 3 4 4 4 4 4 4 5 4 5 6 10 10 9 8 8 8 7 7
5 4 4 3 3 3 3 2 3 3 3 3 3 3 4 3 3 3 4 3 3 3 3 3 4 3 3 3 4 5 5 4 5 5 5 7 9 9 8 8 8 8 7
5 5 4 4 3 3 3 3 3 3 3 3 2 3 4 3 3 3 3 3 3 3 3 3 4 3 3 3 4 5 4 4 4 5 5 5 6 8 9 9 9 9 9
5 5 5 4 3 3 3 2 2 3 3 2 2 3 3 3 3 3 2 2 2 3 2 2 2 3 3 3 3 3 3 4 4 4 5 5 5 5 8 9 9 9 9
5 5 5 4 4 3 3 2 2 3 2 2 2 2 2 3 3 3 2 2 2 2 2 2 2 2 3 3 3 3 3 3 3 4 4 5 5 5 5 8 8 9 9
5 4 4 4 3 3 3 2 2 2 2 2 2 2 2 2 2 3 2 2 2 2 1 2 2 3 3 3 3 3 3 3 3 3 3 3 4 5 5 5 4 6 8
5 5 4 4 4 3 3 2 2 2 2 2 2 2 2 2 2 2 1 2 2 2 2 2 2 3 2 2 1 2 2 2 3 2 2 2 3 4 4 4 3 3 4
6 5 4 4 4 3 2 2 2 2 1 1 1 2 2 2 2 2 2 2 2 2 2 2 2 1 1 0 0 1 1 1 1 2 2 1 2 3 3 3 3 3 3
7 7 5 5 4 4 4 3 2 2 1 1 1 1 1 1 2 1 1 1 1 1 1 1 2 2 1 0 1 2 1 0 1 1 1 1 2 1 2 2 3 3 3
7 6 6 5 5 5 5 4 4 3 2 1 1 1 1 1 1 1 1 1 2 1 1 1 1 1 1 1 0 2 2 0 1 1 1 1 1 1 1 1 2 2 2
7 6 6 5 5 5 5 5 4 3 2 1 1 2 1 1 1 1 1 1 1 1 1 1 1 1 1 1 1 0 0 0 2 1 1 1 1 0 1 1 1 1 2
6 6 5 6 6 5 6 6 5 4 3 3 2 2 1 1 1 1 1 1 1 1 1 1 1 1 1 1 1 1 1 1 1 1 2 2 1 0 0 1 0 1 1
Wind_Direction
93 91 89 83 80 75 76 74 71 76 82 86 87 90 90 91 92 92 88 86 85 83 82 81 83 84 83 83 82 85 91 94 93 92 96 96 96 101 107 111 127 122 112
104 101 99 89 84 76 74 73 71 73 77 80 82 86 85 87 94 94 90 87 83 83 80 78 80 81 81 81 80 81 84 90 91 95 104 112 99 92 92 92 78 91 106
109 106 109 93 84 78 80 78 74 73 75 78 80 82 84 83 89 92 91 89 86 87 85 82 80 81 81 79 79 76 78 85 89 101 142 114 104 92 92 98 98 100 105
109 103 93 90 84 80 79 80 79 78 77 79 81 81 82 81 84 87 89 91 88 88 88 84 82 83 81 78 78 77 78 82 88 146 125 95 96 91 92 98 100 104 106
108 100 91 87 83 78 78 79 79 79 78 78 80 81 81 81 84 85 87 88 87 88 88 87 84 83 83 80 78 79 80 83 95 84 74 78 81 83 86 89 92 100 107
111 101 95 86 82 78 78 75 78 79 78 79 80 80 80 81 82 82 84 85 85 85 84 83 85 85 83 81 79 76 76 78 155 80 76 77 82 83 80 83 82 94 107
109 99 96 86 81 79 78 75 75 79 80 80 80 78 78 79 82 81 79 80 80 80 80 80 85 84 82 80 77 73 69 35 63 80 77 74 74 78 80 84 84 93 104
107 104 102 101 89 80 77 76 75 79 80 81 82 81 80 81 80 80 80 80 78 79 78 80 82 80 80 80 75 72 61 353 81 73 71 70 72 76 79 84 86 91 98
106 103 97 101 108 106 88 79 80 79 81 83 81 79 83 87 84 82 80 79 80 78 79 80 80 80 79 77 73 70 61 22 52 63 68 71 81 81 83 85 86 87 92
108 102 96 95 95 100 103 91 85 81 79 80 80 78 84 99 98 91 87 78 78 79 79 80 80 80 78 75 72 69 62 358 52 62 60 71 70 71 84 87 89 87 92
103 96 94 89 89 88 89 100 102 94 88 97 95 94 96 83 87 91 74 77 80 83 83 83 82 84 90 91 77 65 354 58 65 52 58 61 57 62 74 85 92 92 96
115 104 98 96 90 88 86 93 91 90 96 90 85 87 81 75 68 73 92 87 88 94 97 89 92 110 113 95 100 129 64 68 67 64 64 59 55 63 75 82 91 96 101
117 106 96 97 90 88 88 82 75 79 83 87 82 82 80 80 80 72 80 102 99 102 88 96 98 74 73 73 63 63 50 47 57 61 63 60 58 64 74 82 87 91 96
124 115 106 97 95 87 84 83 80 80 79 79 80 77 80 74 70 70 72 71 76 78 72 68 65 72 67 67 65 63 62 55 60 66 62 56 57 64 74 78 82 87 90
136 132 123 112 97 91 84 80 83 76 75 86 80 80 80 76 75 77 77 75 68 72 73 65 64 66 61 58 54 55 58 63 68 76 75 63 57 62 71 75 80 84 90
151 142 135 128 111 103 99 93 80 74 79 76 77 74 79 81 78 77 79 76 69 65 64 68 70 71 67 63 57 56 55 59 66 70 73 83 70 60 66 70 75 80 83
160 152 139 137 131 119 105 93 90 82 83 82 79 73 76 78 80 80 73 76 74 73 72 69 75 74 72 75 69 59 58 53 59 64 64 64 78 80 71 68 70 72 72
166 157 147 146 150 139 128 118 99 87 84 83 81 76 77 82 78 75 70 70 71 70 71 77 76 83 78 73 71 63 65 64 57 59 64 68 63 74 86 75 68 67 66
168 163 159 153 154 146 135 122 104 101 95 91 84 77 74 79 84 84 68 67 80 83 77 80 81 83 84 75 71 65 59 62 62 62 64 65 68 66 75 88 81 67 61
169 166 163 163 161 147 143 133 118 110 102 89 82 71 67 76 87 91 91 84 79 86 84 90 99 97 88 90 80 69 62 67 68 61 58 65 62 62 61 67 80 87 74
177 177 172 177 171 164 159 157 151 140 121 101 79 73 81 93 99 95 85 85 80 90 99 109 111 117 106 101 104 92 85 72 59 76 62 55 62 56 55 62 60 61 88
185 187 184 184 181 181 182 179 172 141 120 93 89 80 77 85 91 103 107 106 109 105 110 118 127 132 116 113 294 243 181 135 73 75 89 70 62 67 47 45 53 58 49
192 193 190 191 190 189 180 165 149 143 152 135 113 101 78 87 91 97 123 122 127 132 127 154 173 182 175 137 344 303 282 210 93 113 88 89 71 57 44 31 33 51 61
196 194 195 193 195 187 181 180 179 185 181 190 167 144 130 113 107 100 118 143 140 119 145 175 172 197 203 186 73 336 333 6 241 180 160 113 75 51 31 20 15 30 51
192 193 197 194 192 188 187 186 196 198 191 177 166 155 154 140 140 137 134 156 149 142 159 170 163 214 205 205 178 135 18 290 269 252 214 196 168 64 23 6 44 35 38
187 188 195 193 193 194 197 196 197 193 190 181 183 178 179 168 169 168 159 171 177 178 191 201 189 190 215 191 203 217 234 250 272 269 245 224 228 128 40 29 70 80 49
Height
1525 1524 1523 1523 1522 1522 1522 1522 1522 1521 1521 1521 1521 1521 1521 1521 1521 1521 1521 1521 1521 1521 1522 1522 1522 1522 1522 1522 1523 1523 1523 1523 1523 1523 1524 1524 1524 1524 1524 1525 1526 1526 1526
1526 1525 1524 1524 1524 1524 1523 1523 1523 1523 1523 1523 1523 1522 1522 1522 1522 1522 1522 1522 1523 1523 1523 1523 1523 1523 1524 1524 1524 1524 1524 1524 1524 1524 1525 1525 1525 1525 1526 1526 1526 1527 1527
1527 1527 1526 1526 1525 1525 1525 1525 1524 1524 1524 1524 1524 1524 1524 1523 1523 1523 1523 1523 1524 1524 1524 1524 1524 1525 1525 1525 1525 1525 1525 1525 1525 1526 1526 1527 1527 1526 1526 1527 1527 1528 1528
1528 1528 1528 1527 1527 1527 1526 1526 1526 1526 1525 1525 1525 1525 1525 1525 1524 1525 1525 1525 1525 1525 1525 1526 1526 1526 1526 1526 1526 1526 1526 1526 1526 1527 1529 1529 1528 1527 1527 1527 1528 1528 1528
1529 1530 1529 1528 1528 1528 1528 1528 1527 1527 1527 1527 1526 1526 1526 1526 1526 1526 1526 1526 1526 1526 1526 1527 1527 1527 1527 1527 1527 1527 1527 1527 1528 1529 1529 1528 1528 1528 1528 1528 1528 1528 1529
1531 1531 1530 1530 1530 1529 1529 1529 1529 1528 1528 1528 1527 1527 1527 1527 1527 1527 1527 1527 1527 1527 1527 1528 1528 1528 1528 1528 1528 1528 1528 1529 1530 1530 1529 1529 1529 1528 1528 1528 1528 1528 1529
1532 1532 1532 1531 1531 1531 1531 1530 1530 1530 1529 1529 1529 1528 1528 1528 1528 1528 1528 1528 1528 1528 1528 1529 1529 1529 1529 1529 1529 1529 1529 1529 1531 1531 1530 1530 1529 1529 1529 1529 1529 1529 1529
1533 1533 1533 1532 1532 1532 1532 1532 1531 1531 1530 1530 1530 1529 1529 1529 1529 1529 1529 1529 1529 1529 1529 1529 1530 1530 1530 1530 1530 1530 1530 1530 1532 1532 1531 1531 1530 1530 1529 1529 1529 1529 1529
1534 1534 1535 1534 1534 1533 1533 1533 1533 1532 1531 1531 1531 1530 1530 1530 1530 1530 1530 1530 1530 1530 1530 1530 1530 1530 1530 1530 1530 1530 1531 1531 1532 1532 1532 1531 1531 1530 1530 1529 1529 1530 1530
1535 1535 1536 1536 1535 1535 1535 1534 1534 1533 1533 1532 1532 1531 1531 1531 1531 1531 1531 1531 1531 1531 1531 1531 1531 1531 1531 1531 1531 1531 1531 1532 1533 1533 1533 1532 1531 1531 1530 1530 1530 1530 1530
1536 1536 1537 1537 1537 1536 1536 1535 1535 1535 1534 1534 1533 1532 1532 1533 1533 1533 1532 1531 1531 1531 1531 1531 1531 1531 1532 1532 1532 1532 1532 1534 1533 1533 1533 1532 1531 1531 1531 1530 1530 1530 1530
1537 1537 1537 1537 1537 1537 1537 1537 1537 1536 1535 1535 1535 1534 1534 1534 1534 1533 1533 1532 1532 1532 1532 1532 1532 1532 1533 1534 1533 1533 1534 1534 1534 1534 1533 1532 1532 1532 1531 1531 1531 1530 1530
1538 1538 1538 1538 1538 1538 1538 1537 1537 1537 1536 1536 1536 1535 1535 1535 1534 1534 1534 1534 1534 1533 1533 1533 1534 1534 1534 1534 1534 1535 1534 1534 1535 1534 1534 1533 1532 1532 1532 1532 1531 1531 1531
1538 1538 1538 1539 1539 1539 1539 1538 1538 1537 1537 1537 1536 1536 1536 1536 1536 1535 1535 1535 1534 1534 1534 1534 1534 1535 1535 1535 1535 1535 1535 1535 1535 1535 1533 1533 1533 1532 1532 1532 1532 1532 1531
1538 1539 1539 1539 1539 1539 1539 1538 1538 1538 1538 1537 1537 1537 1537 1536 1536 1536 1536 1535 1535 1535 1535 1535 1535 1535 1535 1535 1535 1535 1535 1535 1535 1535 1534 1533 1533 1533 1533 1533 1532 1532 1532
1538 1539 1539 1539 1539 1539 1539 1539 1539 1538 1538 1538 1538 1538 1537 1537 1537 1537 1537 1536 1536 1536 1535 1536 1536 1535 1535 1535 1535 1535 1535 1535 1536 1536 1535 1535 1534 1533 1533 1533 1533 1533 1533
1538 1539 1539 1539 1539 1539 1539 1539 1539 1538 1538 1538 1538 1538 1538 1538 1538 1537 1537 1537 1537 1536 1536 1536 1536 1536 1536 1536 1536 1536 1535 1535 1536 1536 1536 1535 1535 1534 1534 1533 1534 1533 1533
1538 1539 1539 1539 1539 1539 1539 1539 1539 1539 1539 1539 1539 1539 1539 1539 1538 1538 1537 1537 1537 1537 1537 1536 1537 1537 1536 1536 1536 1536 1536 1535 1535 1536 1536 1535 1535 1534 1534 1534 1534 1534 1534
1537 1538 1539 1539 1539 1539 1539 1539 1539 1539 1539 1539 1539 1539 1539 1539 1538 1538 1537 1537 1537 1537 1537 1537 1537 1537 1537 1537 1536 1536 1536 1536 1535 1535 1536 1536 1535 1535 1535 1535 1534 1534 1534
1536 1537 1538 1539 1539 1539 1539 1539 1539 1539 1539 1539 1539 1539 1538 1538 1538 1538 1537 1537 1537 1537 1537 1537 1537 1537 1537 1537 1537 1536 1536 1536 1536 1536 1536 1536 1536 1536 1536 1535 1535 1535 1535
1535 1536 1537 1538 1538 1538 1538 1538 1538 1539 1539 1539 1538 1538 1538 1538 1538 1538 1538 1537 1537 1537 1536 1537 1537 1537 1537 1537 1537 1537 1537 1536 1536 1535 1536 1536 1536 1536 1536 1536 1536 1536 1535
1534 1535 1536 1536 1537 1537 1537 1538 1538 1538 1538 1538 1538 1538 1538 1538 1538 1537 1537 1537 1536 1536 1536 1536 1536 1536 1536 1537 1537 1537 1537 1538 1536 1536 1536 1535 1536 1536 1536 1536 1536 1536 1535
1532 1533 1534 1535 1535 1536 1536 1537 1537 1537 1538 1538 1537 1537 1537 1537 1537 1537 1536 1536 1536 1536 1535 1535 1535 1535 1536 1536 1536 1537 1537 1536 1537 1537 1536 1536 1535 1535 1535 1535 1535 1535 1535
1529 1530 1532 1533 1534 1534 1535 1535 1536 1536 1536 1536 1536 1536 1536 1536 1536 1536 1535 1535 1535 1535 1535 1535 1535 1535 1535 1535 1535 1535 1536 1536 1536 1536 1536 1535 1535 1534 1534 1534 1534 1534 1534
1527 1528 1529 1531 1531 1532 1533 1533 1534 1535 1535 1535 1535 1535 1535 1535 1535 1534 1534 1534 1534 1534 1534 1534 1534 1534 1534 1534 1534 1534 1534 1534 1535 1535 1535 1535 1535 1534 1533 1533 1533 1533 1532
1524 1525 1527 1528 1529 1530 1530 1531 1532 1533 1533 1534 1534 1534 1534 1534 1533 1533 1533 1533 1533 1533 1533 1533 1533 1533 1533 1533 1533 1534 1534 1534 1534 1534 1534 1533 1533 1533 1532 1532 1532 1531 1531